軌道要素
Epoch 2015 May 18.0 TT = JDT 2457160.5
T 2015 Apr. 28.82366 TT MPCW
q 1.2105492 (2000.0) P Q
z +0.0260808 Peri. 352.03408 -0.24892567 +0.84343910
+/-0.0000000 Node 262.55141 -0.86003545 -0.41854223
e 0.9684279 Incl. 28.69360 -0.44539313 +0.33679798
From 270 observations 2015 Mar. 23-July 26, mean residual 0".6.
|